EVA867 RCTP-VHHH

Flight info

Callsign EVA867
Flight time 1h 49m
Altitude 38000
Route CHALI1A CHALI T3 MKG A1 ELATO V522 ABBEY
Aircraft B77W/H-SDE1E2E3FGHIJ1J3J4J5LM1P2RWXYZ/LB1D1

Departure

Time 2026-05-04 23:52
Airport Taiwan Taoyuan International Airport (RCTP)

Arrival

Time 2026-05-05 01:42
Airport Hong Kong International Airport (VHHH)
Time Latitude Longitude Altitude Speed Heading
2026-05-04 23:33 25.07591 121.23443 121 ft 0 kts 320°
2026-05-04 23:42 25.07590 121.23443 121 ft 1 kts 320°
2026-05-04 23:42 25.07579 121.23453 121 ft 1 kts 320°
2026-05-04 23:42 25.07568 121.23463 121 ft 2 kts 320°
2026-05-04 23:43 25.07561 121.23470 121 ft 2 kts 318°
2026-05-04 23:43 25.07551 121.23481 121 ft 1 kts 304°
2026-05-04 23:43 25.07544 121.23494 121 ft 2 kts 293°
2026-05-04 23:43 25.07540 121.23508 121 ft 1 kts 283°
2026-05-04 23:44 25.07538 121.23524 121 ft 1 kts 272°
2026-05-04 23:44 25.07538 121.23540 121 ft 2 kts 260°
2026-05-04 23:44 25.07542 121.23556 121 ft 2 kts 249°
2026-05-04 23:44 25.07548 121.23570 121 ft 2 kts 237°
2026-05-04 23:45 25.07554 121.23579 121 ft 0 kts 229°
2026-05-04 23:45 25.07556 121.23582 121 ft 0 kts 228°
2026-05-04 23:46 25.07540 121.23561 121 ft 8 kts 230°
2026-05-04 23:47 25.07484 121.23486 121 ft 14 kts 230°
2026-05-04 23:47 25.07418 121.23405 121 ft 13 kts 229°
2026-05-04 23:47 25.07355 121.23326 121 ft 13 kts 229°
2026-05-04 23:47 25.07296 121.23250 121 ft 12 kts 230°
2026-05-04 23:48 25.07234 121.23186 121 ft 11 kts 198°
2026-05-04 23:48 25.07157 121.23219 121 ft 14 kts 137°
2026-05-04 23:48 25.07068 121.23259 121 ft 14 kts 201°
2026-05-04 23:48 25.06977 121.23166 121 ft 20 kts 230°
2026-05-04 23:49 25.06870 121.23031 121 ft 24 kts 228°
2026-05-04 23:49 25.06758 121.22892 121 ft 23 kts 228°
2026-05-04 23:49 25.06656 121.22762 121 ft 21 kts 229°
2026-05-04 23:49 25.06558 121.22640 121 ft 20 kts 229°
2026-05-04 23:50 25.06468 121.22523 121 ft 19 kts 230°
2026-05-04 23:50 25.06384 121.22414 121 ft 18 kts 229°
2026-05-04 23:50 25.06303 121.22313 121 ft 17 kts 229°
2026-05-04 23:50 25.06214 121.22246 121 ft 15 kts 175°
2026-05-04 23:51 25.06131 121.22311 121 ft 14 kts 138°
2026-05-04 23:51 25.06118 121.22391 121 ft 11 kts 53°
2026-05-04 23:51 25.06145 121.22427 121 ft 0 kts 49°
2026-05-04 23:52 25.06152 121.22437 121 ft 14 kts 49°
2026-05-04 23:52 25.06458 121.22822 121 ft 119 kts 49°
2026-05-04 23:52 25.07217 121.23772 264 ft 200 kts 48°
2026-05-04 23:52 25.08174 121.24947 1533 ft 211 kts 50°
2026-05-04 23:53 25.09021 121.26048 2841 ft 196 kts 51°
2026-05-04 23:53 25.09944 121.27312 3290 ft 226 kts 51°
2026-05-04 23:53 25.10956 121.28677 4001 ft 241 kts 51°
2026-05-04 23:53 25.12098 121.30018 4899 ft 248 kts 35°
2026-05-04 23:54 25.13707 121.30790 5620 ft 262 kts
2026-05-04 23:54 25.15513 121.30839 6512 ft 266 kts 347°
2026-05-04 23:54 25.17216 121.30087 7227 ft 272 kts 321°
2026-05-04 23:54 25.18618 121.28567 7791 ft 289 kts 304°
2026-05-04 23:55 25.19812 121.26886 9212 ft 277 kts 304°
2026-05-04 23:55 25.20970 121.25235 10277 ft 278 kts 303°
2026-05-04 23:55 25.23271 121.21832 12371 ft 281 kts 301°
2026-05-04 23:56 25.24457 121.20036 12965 ft 299 kts 301°
2026-05-04 23:56 25.25667 121.18085 13377 ft 320 kts 295°
2026-05-04 23:56 25.26586 121.15790 14017 ft 333 kts 284°
2026-05-04 23:56 25.27084 121.13285 14669 ft 344 kts 272°
2026-05-04 23:57 25.27031 121.10606 15361 ft 355 kts 260°
2026-05-04 23:57 25.26342 121.07992 16145 ft 364 kts 246°
2026-05-04 23:57 25.24989 121.05579 16954 ft 374 kts 231°
2026-05-04 23:57 25.23157 121.03563 17911 ft 379 kts 224°
2026-05-04 23:58 25.21226 121.01650 19082 ft 374 kts 225°
2026-05-04 23:58 25.19287 120.99745 19866 ft 381 kts 223°
2026-05-04 23:58 25.17252 120.97818 20564 ft 389 kts 224°
2026-05-04 23:58 25.15229 120.95822 21333 ft 395 kts 225°
2026-05-04 23:59 25.13193 120.93762 22190 ft 397 kts 226°
2026-05-04 23:59 25.11198 120.91692 23070 ft 398 kts 226°
2026-05-04 23:59 25.09185 120.89573 23887 ft 400 kts 227°
2026-05-04 23:59 25.07183 120.87450 24672 ft 404 kts 227°
2026-05-05 00:00 25.05178 120.85313 25442 ft 408 kts 227°
2026-05-05 00:00 25.03819 120.83862 25978 ft 410 kts 227°
2026-05-05 00:00 25.01086 120.80935 27045 ft 413 kts 227°
2026-05-05 00:00 24.99012 120.78712 27784 ft 417 kts 227°
2026-05-05 00:01 24.96927 120.76473 28472 ft 422 kts 227°
2026-05-05 00:01 24.94818 120.74210 29156 ft 426 kts 227°
2026-05-05 00:01 24.92682 120.71918 29867 ft 428 kts 228°
2026-05-05 00:01 24.90575 120.69658 30618 ft 428 kts 228°
2026-05-05 00:02 24.88431 120.67360 31408 ft 426 kts 229°
2026-05-05 00:02 24.86338 120.65116 32156 ft 424 kts 229°
2026-05-05 00:02 24.84224 120.62850 32887 ft 421 kts 230°
2026-05-05 00:02 24.82140 120.60617 33618 ft 420 kts 230°
2026-05-05 00:03 24.80046 120.58374 34258 ft 420 kts 230°
2026-05-05 00:03 24.77970 120.56152 34914 ft 420 kts 230°
2026-05-05 00:03 24.75871 120.53906 35552 ft 419 kts 230°
2026-05-05 00:03 24.73775 120.51682 36104 ft 420 kts 228°
2026-05-05 00:04 24.71485 120.49679 36563 ft 427 kts 222°
2026-05-05 00:04 24.69033 120.47807 36974 ft 429 kts 221°
2026-05-05 00:04 24.66570 120.45944 37407 ft 430 kts 221°
2026-05-05 00:04 24.64099 120.44075 37802 ft 431 kts 221°
2026-05-05 00:05 24.61621 120.42200 38034 ft 433 kts 221°
2026-05-05 00:05 24.56694 120.38477 38032 ft 429 kts 221°
2026-05-05 00:06 24.51757 120.34746 38036 ft 431 kts 221°
2026-05-05 00:06 24.47004 120.31157 38050 ft 431 kts 221°
2026-05-05 00:07 24.42078 120.27380 38044 ft 431 kts 221°
2026-05-05 00:07 24.37187 120.23570 38039 ft 433 kts 221°
2026-05-05 00:08 24.32289 120.19762 38032 ft 433 kts 221°
2026-05-05 00:08 24.27364 120.15939 38026 ft 434 kts 221°
2026-05-05 00:09 24.22434 120.12118 38025 ft 433 kts 221°
2026-05-05 00:09 24.17512 120.08307 38030 ft 433 kts 221°
2026-05-05 00:10 24.12609 120.04515 38032 ft 434 kts 221°
2026-05-05 00:10 24.07660 120.00691 38038 ft 434 kts 221°
2026-05-05 00:11 24.02739 119.96893 38039 ft 435 kts 221°
2026-05-05 00:11 23.97763 119.93057 38034 ft 436 kts 221°
2026-05-05 00:12 23.92833 119.89262 38032 ft 437 kts 221°
2026-05-05 00:12 23.87854 119.85432 38031 ft 437 kts 221°
2026-05-05 00:13 23.82856 119.81593 38028 ft 436 kts 221°
2026-05-05 00:13 23.77915 119.77799 38023 ft 437 kts 221°
2026-05-05 00:14 23.72928 119.73974 38013 ft 438 kts 221°
2026-05-05 00:14 23.67951 119.70160 38018 ft 438 kts 221°
2026-05-05 00:15 23.62948 119.66329 38016 ft 439 kts 222°
2026-05-05 00:15 23.58609 119.61854 38016 ft 429 kts 237°
2026-05-05 00:16 23.55343 119.56496 38009 ft 424 kts 242°
2026-05-05 00:16 23.52247 119.51140 38014 ft 423 kts 242°
2026-05-05 00:17 23.49117 119.45736 38012 ft 423 kts 242°
2026-05-05 00:17 23.45987 119.40340 38023 ft 424 kts 242°
2026-05-05 00:18 23.42826 119.34901 38004 ft 424 kts 242°
2026-05-05 00:18 23.39684 119.29501 38024 ft 425 kts 242°
2026-05-05 00:19 23.36507 119.24046 38022 ft 425 kts 241°
2026-05-05 00:19 23.33358 119.18645 38020 ft 425 kts 242°
2026-05-05 00:20 23.30184 119.13207 38016 ft 425 kts 241°
2026-05-05 00:20 23.27026 119.07806 38020 ft 424 kts 241°
2026-05-05 00:21 23.23859 119.02389 38022 ft 426 kts 241°
2026-05-05 00:21 23.20682 118.96966 38012 ft 427 kts 242°
2026-05-05 00:22 23.17486 118.91514 38019 ft 427 kts 241°
2026-05-05 00:22 23.14297 118.86081 38008 ft 426 kts 241°
2026-05-05 00:23 23.11101 118.80640 38020 ft 428 kts 241°
2026-05-05 00:23 23.07901 118.75199 38011 ft 427 kts 242°
2026-05-05 00:24 23.04705 118.69769 38014 ft 427 kts 241°
2026-05-05 00:24 23.01498 118.64329 38017 ft 427 kts 242°
2026-05-05 00:25 22.98295 118.58901 38013 ft 426 kts 241°
2026-05-05 00:25 22.95114 118.53513 38013 ft 427 kts 241°
2026-05-05 00:26 22.91877 118.48068 38011 ft 428 kts 241°
2026-05-05 00:26 22.88649 118.42645 38011 ft 428 kts 241°
2026-05-05 00:27 22.85412 118.37213 38011 ft 429 kts 241°
2026-05-05 00:27 22.82163 118.31764 38027 ft 429 kts 241°
2026-05-05 00:28 22.78934 118.26355 38028 ft 430 kts 241°
2026-05-05 00:28 22.75665 118.20885 38024 ft 430 kts 240°
2026-05-05 00:29 22.72424 118.15468 38026 ft 430 kts 241°
2026-05-05 00:29 22.69180 118.10051 38028 ft 430 kts 241°
2026-05-05 00:30 22.65934 118.04635 38026 ft 430 kts 240°
2026-05-05 00:30 22.62665 117.99188 38032 ft 431 kts 241°
2026-05-05 00:31 22.59400 117.93742 38021 ft 432 kts 241°
2026-05-05 00:31 22.56164 117.88290 38019 ft 432 kts 241°
2026-05-05 00:32 22.52931 117.82848 38022 ft 431 kts 241°
2026-05-05 00:32 22.49692 117.77404 38023 ft 432 kts 241°
2026-05-05 00:33 22.46443 117.71950 38020 ft 432 kts 241°
2026-05-05 00:33 22.43182 117.66479 38010 ft 434 kts 241°
2026-05-05 00:34 22.39905 117.60990 38012 ft 434 kts 241°
2026-05-05 00:34 22.36624 117.55500 38017 ft 434 kts 241°
2026-05-05 00:35 22.34123 117.49680 38005 ft 430 kts 256°
2026-05-05 00:35 22.33207 117.43353 38015 ft 425 kts 269°
2026-05-05 00:36 22.33093 117.36985 38006 ft 425 kts 270°
2026-05-05 00:36 22.32984 117.30621 38022 ft 426 kts 269°
2026-05-05 00:37 22.32870 117.24239 38026 ft 425 kts 269°
2026-05-05 00:37 22.32751 117.17873 38026 ft 425 kts 269°
2026-05-05 00:38 22.32630 117.11520 38017 ft 425 kts 269°
2026-05-05 00:38 22.32505 117.05157 38022 ft 425 kts 270°
2026-05-05 00:39 22.32378 116.98778 38019 ft 425 kts 269°
2026-05-05 00:39 22.32248 116.92401 38025 ft 426 kts 269°
2026-05-05 00:40 22.32115 116.86030 38017 ft 426 kts 269°
2026-05-05 00:40 22.31979 116.79626 38015 ft 425 kts 269°
2026-05-05 00:41 22.31842 116.73281 38019 ft 426 kts 270°
2026-05-05 00:41 22.31702 116.66885 38024 ft 426 kts 270°
2026-05-05 00:42 22.31559 116.60513 38021 ft 425 kts 269°
2026-05-05 00:42 22.31414 116.54143 38020 ft 427 kts 270°
2026-05-05 00:43 22.31266 116.47763 38024 ft 426 kts 269°
2026-05-05 00:43 22.31198 116.44868 38023 ft 426 kts 269°
2026-05-05 01:06 22.31051 116.38654 38026 ft 425 kts 270°
2026-05-05 01:07 22.30897 116.32276 38037 ft 427 kts 269°
2026-05-05 01:07 22.30744 116.26041 37759 ft 419 kts 269°
2026-05-05 01:08 22.30666 116.22894 37103 ft 417 kts 269°
2026-05-05 01:08 22.30589 116.19814 36414 ft 416 kts 269°
2026-05-05 01:08 22.30511 116.16698 35719 ft 416 kts 269°
2026-05-05 01:08 22.30432 116.13573 35042 ft 414 kts 269°
2026-05-05 01:09 22.30353 116.10490 34336 ft 413 kts 268°
2026-05-05 01:09 22.30273 116.07385 33615 ft 413 kts 268°
2026-05-05 01:09 22.30194 116.04320 32915 ft 411 kts 268°
2026-05-05 01:09 22.30113 116.01229 32195 ft 413 kts 268°
2026-05-05 01:10 22.30030 115.98090 31457 ft 430 kts 268°
2026-05-05 01:10 22.29943 115.94836 30693 ft 435 kts 268°
2026-05-05 01:10 22.29857 115.91599 30236 ft 428 kts 268°
2026-05-05 01:10 22.29772 115.88426 29805 ft 422 kts 268°
2026-05-05 01:11 22.29687 115.85278 29331 ft 418 kts 268°
2026-05-05 01:11 22.29602 115.82192 28848 ft 415 kts 268°
2026-05-05 01:11 22.29520 115.79091 28370 ft 413 kts 268°
2026-05-05 01:11 22.29440 115.76001 27888 ft 411 kts 268°
2026-05-05 01:12 22.29358 115.72918 27391 ft 410 kts 268°
2026-05-05 01:12 22.29276 115.69857 26896 ft 408 kts 268°
2026-05-05 01:12 22.29196 115.66843 26409 ft 404 kts 268°
2026-05-05 01:12 22.29115 115.63836 25912 ft 402 kts 268°
2026-05-05 01:13 22.29033 115.60847 25419 ft 399 kts 268°
2026-05-05 01:13 22.28952 115.57869 24923 ft 397 kts 268°
2026-05-05 01:13 22.28870 115.54895 24419 ft 395 kts 268°
2026-05-05 01:13 22.28788 115.51971 23923 ft 393 kts 268°
2026-05-05 01:14 22.28707 115.49043 23429 ft 390 kts 268°
2026-05-05 01:14 22.28624 115.46107 22928 ft 388 kts 268°
2026-05-05 01:14 22.28542 115.43201 22424 ft 386 kts 268°
2026-05-05 01:14 22.28460 115.40325 21941 ft 385 kts 268°
2026-05-05 01:15 22.28378 115.37466 21439 ft 383 kts 268°
2026-05-05 01:15 22.28295 115.34601 20934 ft 381 kts 268°
2026-05-05 01:15 22.28212 115.31760 20437 ft 380 kts 268°
2026-05-05 01:15 22.28127 115.28979 19944 ft 380 kts 267°
2026-05-05 01:16 22.28041 115.26157 19443 ft 379 kts 267°
2026-05-05 01:16 22.27954 115.23333 18930 ft 377 kts 267°
2026-05-05 01:16 22.27866 115.20480 18407 ft 375 kts 267°
2026-05-05 01:16 22.27779 115.17675 17892 ft 374 kts 267°
2026-05-05 01:17 22.27693 115.14919 17375 ft 372 kts 267°
2026-05-05 01:17 22.27604 115.12103 16849 ft 371 kts 267°
2026-05-05 01:17 22.27517 115.09340 16331 ft 368 kts 267°
2026-05-05 01:17 22.27430 115.06602 15811 ft 366 kts 267°
2026-05-05 01:18 22.27344 115.03889 15295 ft 363 kts 267°
2026-05-05 01:18 22.27257 115.01158 14770 ft 361 kts 267°
2026-05-05 01:18 22.27170 114.98482 14256 ft 358 kts 267°
2026-05-05 01:18 22.27084 114.95818 13738 ft 355 kts 267°
2026-05-05 01:19 22.26998 114.93182 13233 ft 352 kts 267°
2026-05-05 01:19 22.26912 114.90543 12718 ft 350 kts 267°
2026-05-05 01:19 22.26827 114.87946 12209 ft 347 kts 267°
2026-05-05 01:19 22.26741 114.85349 11700 ft 345 kts 267°
2026-05-05 01:20 22.26656 114.82787 11215 ft 342 kts 267°
2026-05-05 01:20 22.26497 114.80260 11030 ft 328 kts 258°
2026-05-05 01:20 22.25681 114.78030 11012 ft 317 kts 238°
2026-05-05 01:20 22.24338 114.76150 10898 ft 316 kts 230°
2026-05-05 01:21 22.22841 114.74432 10736 ft 313 kts 227°
2026-05-05 01:21 22.21297 114.72783 10590 ft 314 kts 226°
2026-05-05 01:21 22.19734 114.71160 10447 ft 306 kts 225°
2026-05-05 01:21 22.18224 114.69606 10224 ft 293 kts 225°
2026-05-05 01:22 22.16795 114.68140 10152 ft 278 kts 225°
2026-05-05 01:22 22.15398 114.66704 10054 ft 272 kts 226°
2026-05-05 01:22 22.14041 114.65311 9922 ft 267 kts 226°
2026-05-05 01:22 22.12695 114.63928 9790 ft 266 kts 225°
2026-05-05 01:23 22.11352 114.62550 9662 ft 266 kts 225°
2026-05-05 01:23 22.10018 114.61181 9535 ft 265 kts 225°
2026-05-05 01:23 22.08666 114.59794 9408 ft 265 kts 225°
2026-05-05 01:23 22.07328 114.58421 9282 ft 265 kts 225°
2026-05-05 01:24 22.05996 114.57056 9157 ft 265 kts 225°
2026-05-05 01:24 22.04657 114.55684 9031 ft 265 kts 225°
2026-05-05 01:24 22.03334 114.54329 8907 ft 264 kts 225°
2026-05-05 01:24 22.02182 114.52795 8771 ft 264 kts 243°
2026-05-05 01:25 22.01408 114.50990 8659 ft 264 kts 248°
2026-05-05 01:25 22.00703 114.49152 8542 ft 264 kts 248°
2026-05-05 01:25 22.00006 114.47319 8427 ft 264 kts 248°
2026-05-05 01:25 21.99313 114.45503 8309 ft 263 kts 248°
2026-05-05 01:26 21.98614 114.43675 8189 ft 263 kts 248°
2026-05-05 01:26 21.97920 114.41863 8069 ft 263 kts 248°
2026-05-05 01:26 21.97220 114.40036 7952 ft 262 kts 248°
2026-05-05 01:26 21.96526 114.38226 7835 ft 263 kts 248°
2026-05-05 01:27 21.95825 114.36395 7716 ft 263 kts 248°
2026-05-05 01:27 21.95134 114.34595 7600 ft 263 kts 248°
2026-05-05 01:27 21.94436 114.32773 7483 ft 262 kts 248°
2026-05-05 01:27 21.93733 114.30943 7366 ft 262 kts 247°
2026-05-05 01:28 21.93035 114.29125 7249 ft 262 kts 247°
2026-05-05 01:28 21.92347 114.27332 7132 ft 263 kts 247°
2026-05-05 01:28 21.91651 114.25520 7013 ft 262 kts 247°
2026-05-05 01:28 21.90953 114.23704 6896 ft 262 kts 247°
2026-05-05 01:29 21.90251 114.21879 6778 ft 262 kts 247°
2026-05-05 01:29 21.89727 114.20015 6646 ft 261 kts 265°
2026-05-05 01:29 21.89981 114.18092 6527 ft 263 kts 289°
2026-05-05 01:29 21.90762 114.16285 6420 ft 264 kts 296°
2026-05-05 01:30 21.91632 114.14569 6303 ft 263 kts 298°
2026-05-05 01:30 21.92528 114.12840 6185 ft 263 kts 298°
2026-05-05 01:30 21.93423 114.11114 6066 ft 263 kts 298°
2026-05-05 01:30 21.94316 114.09390 5948 ft 263 kts 298°
2026-05-05 01:31 21.95211 114.07658 5829 ft 264 kts 298°
2026-05-05 01:31 21.96099 114.05938 5669 ft 264 kts 298°
2026-05-05 01:31 21.96981 114.04230 5570 ft 264 kts 298°
2026-05-05 01:31 21.97876 114.02496 5492 ft 262 kts 298°
2026-05-05 01:32 21.98767 114.00770 5529 ft 263 kts 298°
2026-05-05 01:32 21.99645 113.99068 5284 ft 263 kts 298°
2026-05-05 01:32 22.00536 113.97340 4814 ft 261 kts 298°
2026-05-05 01:32 22.01411 113.95643 4338 ft 261 kts 298°
2026-05-05 01:33 22.02290 113.93938 3860 ft 261 kts 298°
2026-05-05 01:33 22.03164 113.92242 3388 ft 261 kts 299°
2026-05-05 01:33 22.04041 113.90539 3085 ft 253 kts 299°
2026-05-05 01:33 22.04903 113.88865 2617 ft 261 kts 300°
2026-05-05 01:34 22.05782 113.87158 2283 ft 263 kts 301°
2026-05-05 01:34 22.06677 113.85419 2009 ft 262 kts 301°
2026-05-05 01:34 22.07565 113.83692 1750 ft 261 kts 301°
2026-05-05 01:34 22.08441 113.81988 1763 ft 263 kts 301°
2026-05-05 01:35 22.09327 113.80266 1935 ft 264 kts 301°
2026-05-05 01:35 22.10251 113.78529 1929 ft 262 kts 308°
2026-05-05 01:35 22.11572 113.77249 1929 ft 259 kts 332°
2026-05-05 01:35 22.13176 113.76341 1934 ft 256 kts 338°
2026-05-05 01:36 22.14784 113.75533 1936 ft 255 kts 339°
2026-05-05 01:36 22.16411 113.74727 1938 ft 254 kts 339°
2026-05-05 01:36 22.17969 113.73949 1928 ft 242 kts 339°
2026-05-05 01:36 22.19473 113.73198 1934 ft 228 kts 340°
2026-05-05 01:37 22.20931 113.72819 1881 ft 204 kts
2026-05-05 01:37 22.22221 113.73164 1778 ft 182 kts 28°
2026-05-05 01:37 22.23338 113.73764 1608 ft 173 kts 33°
2026-05-05 01:37 22.24384 113.74421 1577 ft 176 kts 37°
2026-05-05 01:38 22.25423 113.75141 1580 ft 184 kts 37°
2026-05-05 01:38 22.26421 113.75951 1567 ft 174 kts 51°
2026-05-05 01:38 22.26994 113.77075 1570 ft 170 kts 72°
2026-05-05 01:38 22.27336 113.78233 1566 ft 157 kts 73°
2026-05-05 01:39 22.27687 113.79336 1571 ft 152 kts 72°
2026-05-05 01:39 22.28037 113.80404 1573 ft 148 kts 73°
2026-05-05 01:39 22.28374 113.81444 1566 ft 139 kts 72°
2026-05-05 01:39 22.28688 113.82408 1445 ft 133 kts 72°
2026-05-05 01:40 22.28987 113.83329 1287 ft 130 kts 73°
2026-05-05 01:40 22.29283 113.84244 1122 ft 129 kts 73°
2026-05-05 01:40 22.29585 113.85175 952 ft 131 kts 72°
2026-05-05 01:40 22.29903 113.86098 750 ft 132 kts 71°
2026-05-05 01:41 22.30203 113.87041 619 ft 130 kts 73°
2026-05-05 01:41 22.30515 113.87968 452 ft 136 kts 72°
2026-05-05 01:41 22.30830 113.88913 232 ft 132 kts 73°
2026-05-05 01:41 22.31115 113.89860 73 ft 132 kts 73°
2026-05-05 01:42 22.31397 113.90743 30 ft 111 kts 71°
2026-05-05 01:42 22.31609 113.91403 30 ft 74 kts 71°
2026-05-05 01:42 22.31650 113.91695 31 ft 33 kts 97°
2026-05-05 01:42 22.31621 113.91866 33 ft 20 kts 101°
2026-05-05 01:43 22.31620 113.92004 34 ft 17 kts 73°
2026-05-05 01:43 22.31660 113.92127 34 ft 17 kts 70°
2026-05-05 01:43 22.31701 113.92257 34 ft 17 kts 72°
2026-05-05 01:43 22.31733 113.92365 35 ft 11 kts 84°
2026-05-05 01:44 22.31698 113.92424 37 ft 9 kts 152°
2026-05-05 01:44 22.31647 113.92452 38 ft 8 kts 145°
2026-05-05 01:44 22.31613 113.92493 39 ft 6 kts 133°
2026-05-05 01:44 22.31577 113.92506 40 ft 5 kts 183°
2026-05-05 01:45 22.31542 113.92497 40 ft 5 kts 200°
2026-05-05 01:45 22.31516 113.92485 40 ft 3 kts 205°